Time,TemperatureF,DewpointF,PressureIn,WindDirection,WindDirectionDegrees,WindSpeedMPH,WindSpeedGustMPH,Humidity,HourlyPrecipIn,Conditions,Clouds,dailyrainin,SolarRadiationWatts/m^2,SoftwareType,DateUTC
2013-07-18 08:35:00,76.1,74.6,30.01,North,32767,-999.0,0.0,95,0.00,,,0.00,60,Wunderground v.1.15,2013-07-18 12:35:00,
2013-07-18 08:40:00,76.3,74.8,30.01,North,32767,-999.0,0.0,95,0.00,,,0.00,62,Wunderground v.1.15,2013-07-18 12:40:00,
2013-07-18 08:45:00,76.5,75.0,30.01,North,32767,-999.0,0.0,95,0.00,,,0.00,63,Wunderground v.1.15,2013-07-18 12:45:00,
2013-07-18 08:50:00,76.7,75.2,30.01,North,32767,-999.0,0.0,95,0.00,,,0.00,58,Wunderground v.1.15,2013-07-18 12:50:00,
2013-07-18 08:55:00,77.0,75.5,30.01,North,32767,-999.0,0.0,95,0.00,,,0.00,72,Wunderground v.1.15,2013-07-18 12:55:00,
2013-07-18 09:05:00,77.4,75.5,30.01,North,32767,-999.0,0.0,94,0.00,,,0.00,55,Wunderground v.1.15,2013-07-18 13:05:00,
2013-07-18 09:10:00,77.6,75.7,30.01,North,32767,-999.0,0.0,94,0.00,,,0.00,62,Wunderground v.1.15,2013-07-18 13:10:00,
2013-07-18 09:15:00,77.7,75.8,30.01,North,32767,-999.0,0.0,94,0.00,,,0.00,77,Wunderground v.1.15,2013-07-18 13:15:00,
2013-07-18 09:20:00,77.9,75.7,30.01,North,32767,-999.0,0.0,93,0.00,,,0.00,74,Wunderground v.1.15,2013-07-18 13:20:00,
2013-07-18 09:25:00,78.1,75.9,30.01,SSE,155,0.0,0.0,93,0.00,,,0.00,83,Wunderground v.1.15,2013-07-18 13:25:00,
2013-07-18 09:30:00,78.3,76.1,30.01,SSE,155,0.0,0.0,93,0.00,,,0.00,77,Wunderground v.1.15,2013-07-18 13:30:00,
2013-07-18 09:35:00,78.5,76.3,30.01,SSE,155,0.0,0.0,93,0.00,,,0.00,77,Wunderground v.1.15,2013-07-18 13:35:00,
2013-07-18 09:45:00,79.0,76.8,30.01,SSE,155,0.0,0.0,93,0.00,,,0.00,76,Wunderground v.1.15,2013-07-18 13:45:00,
2013-07-18 09:55:00,79.6,76.7,30.01,SSE,155,0.0,0.0,91,0.00,,,0.00,106,Wunderground v.1.15,2013-07-18 13:55:00,
2013-07-18 10:00:00,79.8,76.9,30.01,SSE,155,0.0,0.0,91,0.00,,,0.00,120,Wunderground v.1.15,2013-07-18 14:00:00,
2013-07-18 10:05:00,79.9,76.4,30.01,SSE,155,0.0,0.0,89,0.00,,,0.00,93,Wunderground v.1.15,2013-07-18 14:05:00,
2013-07-18 10:15:00,80.5,76.6,30.01,SSE,155,0.0,0.0,88,0.00,,,0.00,116,Wunderground v.1.15,2013-07-18 14:15:00,
2013-07-18 10:25:00,81.1,76.5,30.01,SSE,155,0.0,0.0,86,0.00,,,0.00,100,Wunderground v.1.15,2013-07-18 14:25:00,
2013-07-18 10:30:00,81.4,76.8,30.01,SSE,155,0.0,0.0,86,0.00,,,0.00,97,Wunderground v.1.15,2013-07-18 14:30:00,
2013-07-18 10:35:00,81.8,77.2,30.01,SSE,155,0.0,0.0,86,0.00,,,0.00,106,Wunderground v.1.15,2013-07-18 14:35:00,
2013-07-18 10:40:00,82.0,77.0,30.01,SSE,155,0.0,0.0,85,0.00,,,0.00,113,Wunderground v.1.15,2013-07-18 14:40:00,
2013-07-18 10:50:00,82.6,76.5,30.01,SSE,155,0.0,0.0,82,0.00,,,0.00,111,Wunderground v.1.15,2013-07-18 14:50:00,
2013-07-18 10:55:00,83.0,76.9,30.01,SSE,155,0.0,0.0,82,0.00,,,0.00,113,Wunderground v.1.15,2013-07-18 14:55:00,
2013-07-18 11:05:00,83.4,75.8,30.01,SSE,155,0.0,0.0,78,0.00,,,0.00,141,Wunderground v.1.15,2013-07-18 15:05:00,
2013-07-18 11:10:00,83.8,76.2,30.01,SSE,155,0.0,0.0,78,0.00,,,0.00,123,Wunderground v.1.15,2013-07-18 15:10:00,
2013-07-18 11:20:00,84.3,75.9,30.01,SSE,155,0.0,0.0,76,0.00,,,0.00,162,Wunderground v.1.15,2013-07-18 15:20:00,
2013-07-18 11:25:00,84.7,76.3,30.01,SSE,155,0.0,0.0,76,0.00,,,0.00,208,Wunderground v.1.15,2013-07-18 15:25:00,
2013-07-18 11:30:00,84.9,77.3,30.01,SSE,155,0.0,0.0,78,0.00,,,0.00,107,Wunderground v.1.15,2013-07-18 15:30:00,
2013-07-18 11:40:00,85.1,77.1,30.01,SSE,155,0.0,0.0,77,0.00,,,0.00,165,Wunderground v.1.15,2013-07-18 15:40:00,
2013-07-18 11:45:00,85.1,75.9,30.01,SSE,155,0.0,0.0,74,0.00,,,0.00,148,Wunderground v.1.15,2013-07-18 15:45:00,
2013-07-18 11:50:00,85.3,75.7,30.01,SSE,155,0.0,0.0,73,0.00,,,0.00,160,Wunderground v.1.15,2013-07-18 15:50:00,
2013-07-18 12:00:00,85.5,76.3,30.01,SSE,155,0.0,0.0,74,0.00,,,0.00,67,Wunderground v.1.15,2013-07-18 16:00:00,
2013-07-18 12:05:00,85.3,76.1,30.00,SSE,155,0.0,0.0,74,0.00,,,0.00,120,Wunderground v.1.15,2013-07-18 16:05:00,
2013-07-18 12:10:00,85.1,76.7,30.00,SSE,155,0.0,0.0,76,0.00,,,0.00,160,Wunderground v.1.15,2013-07-18 16:10:00,
2013-07-18 12:20:00,85.7,76.5,30.00,SSE,155,0.0,0.0,74,0.00,,,0.00,141,Wunderground v.1.15,2013-07-18 16:20:00,
2013-07-18 12:30:00,86.5,76.0,30.00,SSE,155,0.0,0.0,71,0.00,,,0.00,144,Wunderground v.1.15,2013-07-18 16:30:00,
2013-07-18 12:35:00,86.7,75.7,30.00,SSE,155,0.0,0.0,70,0.00,,,0.00,158,Wunderground v.1.15,2013-07-18 16:35:00,
2013-07-18 12:40:00,87.2,76.2,30.00,SSE,155,0.0,0.0,70,0.00,,,0.00,171,Wunderground v.1.15,2013-07-18 16:40:00,
2013-07-18 12:50:00,87.8,76.4,30.00,East,93,0.0,0.0,69,0.00,,,0.00,143,Wunderground v.1.15,2013-07-18 16:50:00,
2013-07-18 12:55:00,87.8,76.4,30.00,East,93,0.0,0.0,69,0.00,,,0.00,171,Wunderground v.1.15,2013-07-18 16:55:00,
2013-07-18 13:00:00,88.2,76.7,30.00,East,96,0.0,0.0,69,0.00,,,0.00,204,Wunderground v.1.15,2013-07-18 17:00:00,
2013-07-18 13:05:00,88.6,77.6,30.00,East,96,0.0,0.0,70,0.00,,,0.00,433,Wunderground v.1.15,2013-07-18 17:05:00,
2013-07-18 13:15:00,88.4,77.4,30.00,East,96,0.0,0.0,70,0.00,,,0.00,93,Wunderground v.1.15,2013-07-18 17:15:00,
2013-07-18 13:20:00,88.4,77.4,29.99,East,96,0.0,0.0,70,0.00,,,0.00,827,Wunderground v.1.15,2013-07-18 17:20:00,
2013-07-18 13:25:00,88.4,76.0,29.99,East,96,0.0,0.0,67,0.00,,,0.00,813,Wunderground v.1.15,2013-07-18 17:25:00,
2013-07-18 13:35:00,89.0,76.6,29.99,East,96,0.0,0.0,67,0.00,,,0.00,830,Wunderground v.1.15,2013-07-18 17:35:00,
2013-07-18 13:40:00,89.3,76.0,29.99,East,96,0.0,0.0,65,0.00,,,0.00,832,Wunderground v.1.15,2013-07-18 17:40:00,
2013-07-18 13:45:00,89.7,76.8,29.99,East,96,0.0,0.0,66,0.00,,,0.00,778,Wunderground v.1.15,2013-07-18 17:45:00,
2013-07-18 13:50:00,90.3,77.4,29.99,East,96,0.0,0.0,66,0.00,,,0.00,778,Wunderground v.1.15,2013-07-18 17:50:00,
2013-07-18 14:00:00,90.1,76.3,29.99,East,96,0.0,0.0,64,0.00,,,0.00,120,Wunderground v.1.15,2013-07-18 18:00:00,
2013-07-18 14:05:00,89.7,76.4,29.98,East,96,0.0,0.0,65,0.00,,,0.00,155,Wunderground v.1.15,2013-07-18 18:05:00,
2013-07-18 14:10:00,89.3,77.3,29.98,East,96,0.0,0.0,68,0.00,,,0.00,477,Wunderground v.1.15,2013-07-18 18:10:00,
2013-07-18 14:20:00,89.7,78.2,29.97,East,96,0.0,0.0,69,0.00,,,0.00,834,Wunderground v.1.15,2013-07-18 18:20:00,
2013-07-18 14:25:00,90.1,76.3,29.97,East,96,0.0,0.0,64,0.00,,,0.00,822,Wunderground v.1.15,2013-07-18 18:25:00,
2013-07-18 14:30:00,90.5,76.7,29.97,East,96,0.0,0.0,64,0.00,,,0.00,389,Wunderground v.1.15,2013-07-18 18:30:00,
2013-07-18 14:35:00,91.0,75.7,29.97,East,96,0.0,0.0,61,0.00,,,0.00,141,Wunderground v.1.15,2013-07-18 18:35:00,
2013-07-18 14:40:00,91.0,76.2,29.97,East,96,0.0,0.0,62,0.00,,,0.00,141,Wunderground v.1.15,2013-07-18 18:40:00,
2013-07-18 14:50:00,91.2,75.9,29.96,East,96,0.0,0.0,61,0.00,,,0.00,153,Wunderground v.1.15,2013-07-18 18:50:00,
2013-07-18 15:00:00,90.7,76.8,29.96,East,96,0.0,0.0,64,0.00,,,0.00,70,Wunderground v.1.15,2013-07-18 19:00:00,
2013-07-18 15:10:00,89.3,76.4,29.95,East,96,0.0,0.0,66,0.00,,,0.00,121,Wunderground v.1.15,2013-07-18 19:10:00,
2013-07-18 15:20:00,89.0,74.3,29.95,East,96,0.0,0.0,62,0.00,,,0.00,120,Wunderground v.1.15,2013-07-18 19:20:00,
2013-07-18 15:30:00,89.3,76.4,29.95,East,83,0.0,0.0,66,0.00,,,0.00,125,Wunderground v.1.15,2013-07-18 19:30:00,
2013-07-18 15:40:00,88.6,72.9,29.95,East,83,0.0,0.0,60,0.00,,,0.00,116,Wunderground v.1.15,2013-07-18 19:40:00,
2013-07-18 15:45:00,88.6,74.9,29.95,East,83,0.0,0.0,64,0.00,,,0.00,125,Wunderground v.1.15,2013-07-18 19:45:00,
2013-07-18 15:55:00,88.8,77.3,29.94,East,83,0.0,0.0,69,0.00,,,0.00,113,Wunderground v.1.15,2013-07-18 19:55:00,
2013-07-18 16:00:00,88.8,77.3,29.94,East,83,0.0,0.0,69,0.00,,,0.00,116,Wunderground v.1.15,2013-07-18 20:00:00,
2013-07-18 16:10:00,89.0,77.5,29.94,ENE,72,0.0,0.0,69,0.00,,,0.00,127,Wunderground v.1.15,2013-07-18 20:10:00,
2013-07-18 16:15:00,89.0,78.4,29.94,ENE,72,0.0,0.0,71,0.00,,,0.00,160,Wunderground v.1.15,2013-07-18 20:15:00,
2013-07-18 16:20:00,89.0,78.4,29.94,ENE,72,0.0,0.0,71,0.00,,,0.00,118,Wunderground v.1.15,2013-07-18 20:20:00,
2013-07-18 16:30:00,88.6,75.8,29.94,ENE,72,0.0,0.0,66,0.00,,,0.00,104,Wunderground v.1.15,2013-07-18 20:30:00,
2013-07-18 16:35:00,88.6,75.3,29.93,ENE,72,0.0,0.0,65,0.00,,,0.00,100,Wunderground v.1.15,2013-07-18 20:35:00,
2013-07-18 16:40:00,88.4,76.0,29.93,ENE,72,0.0,0.0,67,0.00,,,0.00,111,Wunderground v.1.15,2013-07-18 20:40:00,
2013-07-18 16:50:00,88.0,76.5,29.93,ENE,72,0.0,0.0,69,0.00,,,0.00,113,Wunderground v.1.15,2013-07-18 20:50:00,
2013-07-18 16:55:00,88.0,77.0,29.93,ENE,72,0.0,0.0,70,0.00,,,0.00,120,Wunderground v.1.15,2013-07-18 20:55:00,
2013-07-18 17:05:00,88.0,77.8,29.93,ENE,72,0.0,0.0,72,0.00,,,0.00,107,Wunderground v.1.15,2013-07-18 21:05:00,
2013-07-18 17:15:00,88.0,77.4,29.93,ENE,72,0.0,0.0,71,0.00,,,0.00,104,Wunderground v.1.15,2013-07-18 21:15:00,
2013-07-18 17:20:00,88.0,78.3,29.92,North,32767,-999.0,0.0,73,0.00,,,0.00,97,Wunderground v.1.15,2013-07-18 21:20:00,
2013-07-18 17:25:00,87.8,77.2,29.92,North,32767,-999.0,0.0,71,0.00,,,0.00,88,Wunderground v.1.15,2013-07-18 21:25:00,
2013-07-18 17:35:00,87.6,78.3,29.92,North,32767,-999.0,0.0,74,0.00,,,0.00,70,Wunderground v.1.15,2013-07-18 21:35:00,
2013-07-18 17:40:00,87.4,78.5,29.92,North,32767,-999.0,0.0,75,0.00,,,0.00,55,Wunderground v.1.15,2013-07-18 21:40:00,
2013-07-18 17:50:00,87.0,78.9,29.92,North,32767,-999.0,0.0,77,0.00,,,0.00,26,Wunderground v.1.15,2013-07-18 21:50:00,
2013-07-18 17:55:00,86.7,77.8,29.92,North,32767,-999.0,0.0,75,0.00,,,0.00,26,Wunderground v.1.15,2013-07-18 21:55:00,
2013-07-18 18:05:00,86.3,78.6,29.91,North,32767,-999.0,0.0,78,0.00,,,0.00,40,Wunderground v.1.15,2013-07-18 22:05:00,
2013-07-18 18:10:00,85.9,77.5,29.91,North,32767,-999.0,0.0,76,0.00,,,0.00,44,Wunderground v.1.15,2013-07-18 22:10:00,
2013-07-18 18:15:00,85.5,77.9,29.91,North,32767,-999.0,0.0,78,0.00,,,0.00,40,Wunderground v.1.15,2013-07-18 22:15:00,
2013-07-18 18:25:00,84.3,77.5,29.93,North,32767,-999.0,0.0,80,0.00,,,0.00,46,Wunderground v.1.15,2013-07-18 22:25:00,
2013-07-18 18:30:00,83.8,77.0,29.93,North,32767,-999.0,0.0,80,0.00,,,0.00,32,Wunderground v.1.15,2013-07-18 22:30:00,
2013-07-18 18:35:00,83.4,75.8,29.92,North,32767,-999.0,0.0,78,0.00,,,0.00,44,Wunderground v.1.15,2013-07-18 22:35:00,
2013-07-18 18:45:00,83.0,75.8,29.92,North,32767,-999.0,0.0,79,0.00,,,0.00,48,Wunderground v.1.15,2013-07-18 22:45:00,
2013-07-18 18:50:00,82.8,76.4,29.92,North,32767,-999.0,0.0,81,0.00,,,0.00,72,Wunderground v.1.15,2013-07-18 22:50:00,
2013-07-18 19:00:00,82.2,76.2,29.92,North,32767,-999.0,0.0,82,0.00,,,0.00,40,Wunderground v.1.15,2013-07-18 23:00:00,
2013-07-18 19:05:00,82.2,76.2,29.92,North,32767,-999.0,0.0,82,0.00,,,0.00,46,Wunderground v.1.15,2013-07-18 23:05:00,
2013-07-18 19:15:00,82.0,75.6,29.92,North,32767,-999.0,0.0,81,0.00,,,0.00,23,Wunderground v.1.15,2013-07-18 23:15:00,
2013-07-18 19:20:00,81.8,75.4,29.93,North,32767,-999.0,0.0,81,0.00,,,0.00,14,Wunderground v.1.15,2013-07-18 23:20:00,
2013-07-18 19:25:00,81.6,75.9,29.93,North,32767,-999.0,0.0,83,0.00,,,0.00,7,Wunderground v.1.15,2013-07-18 23:25:00,
2013-07-18 19:35:00,81.1,75.8,29.93,North,32767,-999.0,0.0,84,0.00,,,0.00,0,Wunderground v.1.15,2013-07-18 23:35:00,
2013-07-18 19:40:00,80.9,74.9,29.93,North,32767,-999.0,0.0,82,0.00,,,0.00,0,Wunderground v.1.15,2013-07-18 23:40:00,
2013-07-18 19:50:00,80.7,75.4,29.94,North,32767,-999.0,0.0,84,0.00,,,0.00,0,Wunderground v.1.15,2013-07-18 23:50:00,
2013-07-18 19:55:00,80.5,75.2,29.94,North,32767,-999.0,0.0,84,0.00,,,0.00,0,Wunderground v.1.15,2013-07-18 23:55:00,
2013-07-18 20:00:00,80.3,75.4,29.94,North,32767,-999.0,0.0,85,0.00,,,0.00,0,Wunderground v.1.15,2013-07-19 00:00:00,
2013-07-18 20:10:00,80.1,75.5,29.94,North,32767,-999.0,0.0,86,0.00,,,0.00,0,Wunderground v.1.15,2013-07-19 00:10:00,
2013-07-18 20:15:00,79.9,75.3,29.94,North,32767,-999.0,0.0,86,0.00,,,0.00,0,Wunderground v.1.15,2013-07-19 00:15:00,
2013-07-18 20:20:00,79.9,75.7,29.94,North,32767,-999.0,0.0,87,0.00,,,0.00,0,Wunderground v.1.15,2013-07-19 00:20:00,
2013-07-18 20:30:00,79.9,75.7,29.94,North,32767,-999.0,0.0,87,0.00,,,0.00,0,Wunderground v.1.15,2013-07-19 00:30:00,
2013-07-18 20:40:00,79.9,75.7,29.94,North,32767,-999.0,0.0,87,0.00,,,0.00,0,Wunderground v.1.15,2013-07-19 00:40:00,
2013-07-18 20:45:00,79.8,75.9,29.94,North,32767,-999.0,0.0,88,0.00,,,0.00,0,Wunderground v.1.15,2013-07-19 00:45:00,
2013-07-18 20:50:00,79.8,75.9,29.95,North,32767,-999.0,0.0,88,0.00,,,0.00,0,Wunderground v.1.15,2013-07-19 00:50:00,
2013-07-18 21:00:00,79.4,75.9,29.95,North,32767,-999.0,0.0,89,0.00,,,0.00,0,Wunderground v.1.15,2013-07-19 01:00:00,
2013-07-18 21:05:00,79.2,75.7,29.95,North,32767,-999.0,0.0,89,0.00,,,0.00,0,Wunderground v.1.15,2013-07-19 01:05:00,
2013-07-18 21:15:00,79.0,75.8,29.95,North,32767,-999.0,0.0,90,0.00,,,0.00,0,Wunderground v.1.15,2013-07-19 01:15:00,
2013-07-18 21:20:00,79.0,75.8,29.95,North,32767,-999.0,0.0,90,0.00,,,0.00,0,Wunderground v.1.15,2013-07-19 01:20:00,
2013-07-18 21:25:00,78.8,75.6,29.95,North,32767,-999.0,0.0,90,0.00,,,0.00,0,Wunderground v.1.15,2013-07-19 01:25:00,
2013-07-18 21:35:00,78.8,75.9,29.95,North,32767,-999.0,0.0,91,0.00,,,0.00,0,Wunderground v.1.15,2013-07-19 01:35:00,
2013-07-18 21:40:00,78.6,75.8,29.95,North,32767,-999.0,0.0,91,0.00,,,0.00,0,Wunderground v.1.15,2013-07-19 01:40:00,
2013-07-18 21:50:00,78.5,75.7,29.96,North,32767,-999.0,0.0,91,0.00,,,0.00,0,Wunderground v.1.15,2013-07-19 01:50:00,
2013-07-18 21:55:00,78.5,76.0,29.96,North,32767,-999.0,0.0,92,0.00,,,0.00,0,Wunderground v.1.15,2013-07-19 01:55:00,
2013-07-18 22:00:00,78.3,75.1,29.96,North,32767,-999.0,0.0,90,0.00,,,0.00,0,Wunderground v.1.15,2013-07-19 02:00:00,
2013-07-18 22:10:00,77.9,75.1,29.96,North,32767,-999.0,0.0,91,0.00,,,0.00,0,Wunderground v.1.15,2013-07-19 02:10:00,
2013-07-18 22:20:00,77.9,75.1,29.96,North,32767,-999.0,0.0,91,0.00,,,0.00,0,Wunderground v.1.15,2013-07-19 02:20:00,
2013-07-18 22:25:00,77.7,74.9,29.96,North,32767,-999.0,0.0,91,0.00,,,0.00,0,Wunderground v.1.15,2013-07-19 02:25:00,
2013-07-18 22:30:00,77.7,74.9,29.96,North,32767,-999.0,0.0,91,0.00,,,0.00,0,Wunderground v.1.15,2013-07-19 02:30:00,
2013-07-18 22:40:00,77.6,74.8,29.97,North,32767,-999.0,0.0,91,0.00,,,0.00,0,Wunderground v.1.15,2013-07-19 02:40:00,
2013-07-18 22:45:00,77.4,74.9,29.97,North,32767,-999.0,0.0,92,0.00,,,0.00,0,Wunderground v.1.15,2013-07-19 02:45:00,
2013-07-18 22:50:00,77.4,74.9,29.97,North,32767,-999.0,0.0,92,0.00,,,0.00,0,Wunderground v.1.15,2013-07-19 02:50:00,
2013-07-18 23:00:00,77.2,74.7,29.97,North,32767,-999.0,0.0,92,0.00,,,0.00,0,Wunderground v.1.15,2013-07-19 03:00:00,
2013-07-18 23:05:00,77.0,74.5,29.97,North,32767,-999.0,0.0,92,0.00,,,0.00,0,Wunderground v.1.15,2013-07-19 03:05:00,
2013-07-18 23:15:00,77.0,74.8,29.97,North,32767,-999.0,0.0,93,0.00,,,0.00,0,Wunderground v.1.15,2013-07-19 03:15:00,
2013-07-18 23:20:00,76.8,74.6,29.97,North,32767,-999.0,0.0,93,0.00,,,0.00,0,Wunderground v.1.15,2013-07-19 03:20:00,
2013-07-18 23:25:00,76.8,74.6,29.97,North,32767,-999.0,0.0,93,0.00,,,0.00,0,Wunderground v.1.15,2013-07-19 03:25:00,
2013-07-18 23:35:00,76.7,74.5,29.97,North,32767,-999.0,0.0,93,0.00,,,0.00,0,Wunderground v.1.15,2013-07-19 03:35:00,
2013-07-18 23:40:00,76.7,74.5,29.97,North,32767,-999.0,0.0,93,0.00,,,0.00,0,Wunderground v.1.15,2013-07-19 03:40:00,
2013-07-18 23:50:00,76.7,74.5,29.98,North,32767,-999.0,0.0,93,0.00,,,0.00,0,Wunderground v.1.15,2013-07-19 03:50:00,
2013-07-18 23:55:00,76.5,74.3,29.98,North,32767,-999.0,0.0,93,0.00,,,0.00,0,Wunderground v.1.15,2013-07-19 03:55:00,